EW7554 Weather Reports


time (UTC)temp
C
wind
direction
speed
KPH
gust
KPH
rain 1hr
cm
rain 24hr
cm
rain mn
cm
humidity
%
barometer
mb
20260906060033 22 153 1.6 8.0 0.00 0.00 0.00 82 1017.1
20260906054526 23 84 1.6 6.4 0.00 0.00 0.00 81 1017.0
20260906053023 23 115 3.2 6.4 0.00 0.00 0.00 81 1016.9
20260906051520 23 120 0.0 4.8 0.00 0.00 0.00 81 1017.0
20260906050018 23 127 1.6 4.8 0.00 0.00 0.00 80 1017.1
20260906044518 23 107 0.0 4.8 0.00 0.00 0.00 79 1017.2
20260906043027 23 97 1.6 4.8 0.00 0.00 0.00 79 1017.2
20260906041518 23 56 0.0 8.0 0.00 0.00 0.00 79 1017.4
20260906040023 23 50 1.6 6.4 0.00 0.00 0.00 79 1017.3
20260906034529 23 78 1.6 4.8 0.00 0.00 0.00 79 1017.4
20260906033024 23 136 1.6 4.8 0.00 0.00 0.00 78 1017.4
20260906031518 23 141 0.0 3.2 0.00 0.00 0.00 78 1017.2
20260906030015 24 150 0.0 4.8 0.00 0.00 0.00 77 1017.3
20260906024514 24 150 0.0 4.8 0.00 0.00 0.00 77 1017.5
20260906023016 24 150 0.0 3.2 0.00 0.00 0.00 77 1017.4
20260906021514 24 150 1.6 4.8 0.00 0.00 0.00 77 1017.1
20260906020013 24 148 1.6 8.0 0.00 0.00 0.00 75 1016.6
20260906014525 25 145 4.8 12.9 0.00 0.00 0.00 74 1016.3
20260906013113 25 171 4.8 17.7 0.00 0.00 0.00 74 1015.7
20260906011521 25 205 8.0 16.1 0.00 0.00 0.00 73 1015.4
20260906010012 25 149 9.7 17.7 0.00 0.00 0.00 73 1015.3
20260906004517 26 167 8.0 16.1 0.00 0.00 0.00 71 1015.2
20260906003011 26 163 9.7 20.9 0.00 0.00 0.00 69 1015.0
20260906001510 27 165 8.0 12.9 0.00 0.00 0.00 68 1014.8
20260906000010 27 161 8.0 14.5 0.00 0.00 0.00 65 1014.7
20260905234508 28 182 3.2 12.9 0.00 0.00 0.00 63 1014.7
20260905233007 28 184 8.0 19.3 0.00 0.00 0.00 62 1014.6
20260905231508 29 174 6.4 17.7 0.00 0.00 0.00 60 1014.4
20260905230007 30 129 1.6 16.1 0.00 0.00 0.00 58 1014.3
20260905224513 30 57 3.2 19.3 0.00 0.00 0.00 57 1014.0
20260905223005 30 41 6.4 16.1 0.00 0.00 0.00 58 1013.8
20260905221505 30 173 6.4 20.9 0.00 0.00 0.00 59 1014.0
20260905220002 30 61 4.8 14.5 0.00 0.00 0.00 59 1014.3
20260905214501 30 57 3.2 19.3 0.00 0.00 0.00 60 1014.5
20260905213104 29 84 6.4 20.9 0.00 0.00 0.00 62 1014.6
20260905211605 29 67 8.0 17.7 0.00 0.00 0.00 61 1014.7
20260905210059 29 48 6.4 19.3 0.00 0.00 0.00 63 1014.4
20260905204602 28 61 4.8 20.9 0.00 0.00 0.00 62 1014.7
20260905203058 28 55 11.3 20.9 0.00 0.00 0.00 64 1014.8
20260905201552 28 80 4.8 14.5 0.00 0.00 0.00 66 1015.5
20260905200100 28 17 9.7 17.7 0.00 0.00 0.00 67 1015.8
20260905194549 27 57 4.8 16.1 0.00 0.00 0.00 69 1015.9
20260905193103 27 27 4.8 11.3 0.00 0.00 0.00 68 1016.2
20260905191553 27 360 3.2 8.0 0.00 0.00 0.00 69 1016.4
20260905190147 27 44 0.0 6.4 0.00 0.00 0.00 68 1016.4
20260905184546 27 350 1.6 8.0 0.00 0.00 0.00 69 1016.5
20260905183040 27 52 1.6 8.0 0.00 0.00 0.00 69 1016.5
20260905181541 26 74 3.2 6.4 0.00 0.00 0.00 71 1016.6
20260905180034 26 128 1.6 8.0 0.00 0.00 0.00 73 1016.8
20260905174534 25 162 3.2 12.9 0.00 0.00 0.00 73 1017.0
20260905173033 25 111 1.6 8.0 0.00 0.00 0.00 75 1017.3
20260905171528 24 172 3.2 11.3 0.00 0.00 0.00 79 1017.5
20260905170023 23 176 3.2 8.0 0.00 0.00 0.00 80 1017.4
20260905164520 23 133 3.2 9.7 0.00 0.00 0.00 80 1017.4
20260905163019 23 67 4.8 9.7 0.00 0.00 0.00 81 1017.5
20260905161517 23 13 3.2 9.7 0.00 0.00 0.00 82 1017.5
20260905160033 22 34 3.2 8.0 0.00 0.00 0.00 84 1017.4
20260905154509 22 72 1.6 9.7 0.00 0.00 0.00 85 1017.4
20260905153006 22 165 3.2 4.8 0.00 0.00 0.00 85 1017.4
20260905151502 22 12 0.0 6.4 0.00 0.00 0.00 87 1017.1
20260905144601 21 30 4.8 12.9 0.00 0.00 0.00 90 1016.6
20260905143058 21 9 4.8 9.7 0.00 0.00 0.00 90 1016.6
20260905141557 21 31 1.6 8.0 0.00 0.00 0.00 91 1016.6
20260905140053 20 50 3.2 9.7 0.00 0.00 0.00 91 1016.7
20260905134556 20 46 1.6 6.4 0.00 0.00 0.00 91 1016.9
20260905133049 20 28 3.2 4.8 0.00 0.00 0.00 91 1016.8
20260905131551 20 38 3.2 4.8 0.00 0.00 0.00 91 1016.6
20260905130044 20 51 0.0 6.4 0.00 0.00 0.00 91 1016.1
20260905124543 20 19 3.2 8.0 0.00 0.00 0.00 91 1015.4
20260905123040 20 52 4.8 12.9 0.00 0.00 0.00 91 1015.0
20260905121538 20 40 0.0 4.8 0.00 0.00 0.00 91 1015.3
20260905120037 20 46 1.6 6.4 0.00 0.00 0.00 91 1015.4
20260905114541 20 49 1.6 4.8 0.00 0.00 0.00 90 1015.4
20260905113037 19 34 3.2 8.0 0.00 0.00 0.00 90 1015.1
20260905111533 19 69 3.2 9.7 0.00 0.00 0.00 90 1015.1
20260905110034 19 46 3.2 9.7 0.00 0.00 0.00 90 1015.1
20260905104529 20 80 4.8 9.7 0.00 0.00 0.00 89 1014.9
20260905103029 20 31 3.2 8.0 0.00 0.00 0.00 89 1014.8
20260905101539 20 49 3.2 12.9 0.00 0.00 0.00 89 1014.7
20260905100028 20 40 0.0 12.9 0.00 0.00 0.00 89 1014.9
20260905094527 20 42 3.2 16.1 0.00 0.00 0.00 89 1014.1
20260905093025 20 69 6.4 17.7 0.00 0.00 0.00 88 1014.0
20260905091524 20 42 4.8 14.5 0.00 0.00 0.00 88 1014.2
20260905090023 20 42 6.4 16.1 0.00 0.00 0.00 88 1014.4
20260905084522 20 67 3.2 16.1 0.00 0.00 0.00 88 1014.5
20260905083031 20 11 6.4 14.5 0.00 0.00 0.00 88 1014.5
20260905081520 20 45 4.8 17.7 0.00 0.00 0.00 88 1014.5
20260905080020 20 28 4.8 12.9 0.00 0.00 0.00 88 1014.6
20260905074519 19 23 3.2 14.5 0.00 0.00 0.00 87 1014.7
20260905073023 19 22 3.2 14.5 0.00 0.00 0.00 87 1014.8
20260905071517 20 23 3.2 12.9 0.00 0.00 0.00 86 1014.7
20260905070016 20 20 1.6 4.8 0.00 0.00 0.00 85 1014.8
20260905064523 20 13 4.8 9.7 0.00 0.00 0.00 85 1014.6
20260905063013 20 5 4.8 12.9 0.00 0.00 0.00 84 1014.7
20260905061510 20 346 4.8 9.7 0.00 0.00 0.00 84 1014.7